Location: Brunembert
(50.7122°N, 1.8935°E)
Time: 15:33:19
(UTC+00:00)

Cosmos 1500 Rocket - Pass Details

Date: 04 August 2021
Orbit: 602 x 632 km, 82.5° (Epoch: 23 September)

Event Time Altitude Azimuth Distance (km) Brightness Sun altitude
Exits shadow 21:23:51 21° 167° (SSE) 1,429 4.9 -14.3°
Maximum altitude 21:26:42 57° 95° (E) 746 3.7 -14.6°
Drops below altitude 10° 21:31:05 10° 18° (NNE) 2,022 6.7 -15.0°
Sets 21:33:22 0° 14° (NNE) 2,937 7.6 -15.2°
